ES2ADF-5 Weather Reports


Display with metric or nautical units.
time (UTC)temp
F
wind
direction
speed
MPH
gust
MPH
rain 1hr
in
rain 24hr
in
rain mn
in
humidity
%
barometer
mb
20260506150712 52 0 0.0 0.0 0.00 0.00 0.00 36 1012.6
20260506150211 52 0 0.0 0.0 0.00 0.00 0.00 36 1012.5
20260506145711 52 0 0.0 0.0 0.00 0.00 0.00 36 1012.7
20260506145211 52 0 0.0 0.0 0.00 0.00 0.00 36 1012.8
20260506144711 52 0 0.0 0.0 0.00 0.00 0.00 36 1012.8
20260506144210 52 0 0.0 0.0 0.00 0.00 0.00 36 1012.9
20260506143710 53 0 0.0 0.0 0.00 0.00 0.00 35 1012.9
20260506143210 53 0 0.0 0.0 0.00 0.00 0.00 35 1012.9
20260506142709 53 0 0.0 0.0 0.00 0.00 0.00 35 1012.9
20260506142209 53 0 0.0 0.0 0.00 0.00 0.00 35 1012.7
20260506141709 53 0 0.0 0.0 0.00 0.00 0.00 35 1012.7
20260506141209 53 0 0.0 0.0 0.00 0.00 0.00 35 1012.7
20260506140708 53 0 0.0 0.0 0.00 0.00 0.00 35 1012.8
20260506140208 53 0 0.0 0.0 0.00 0.00 0.00 38 1012.9
20260506135708 53 0 0.0 0.0 0.00 0.00 0.00 38 1012.9
20260506135207 53 0 0.0 0.0 0.00 0.00 0.00 38 1012.9
20260506134707 53 0 0.0 0.0 0.00 0.00 0.00 38 1013.0
20260506134207 53 0 0.0 0.0 0.00 0.00 0.00 37 1013.2
20260506133706 53 0 0.0 0.0 0.00 0.00 0.00 37 1013.2
20260506133206 53 0 0.0 0.0 0.00 0.00 0.00 37 1013.2
20260506132706 53 0 0.0 0.0 0.00 0.00 0.00 36 1013.2
20260506132206 53 0 0.0 0.0 0.00 0.00 0.00 35 1013.2
20260506131705 53 0 0.0 0.0 0.00 0.00 0.00 36 1013.2
20260506131205 54 0 0.0 0.0 0.00 0.00 0.00 36 1013.2
20260506130705 54 0 0.0 0.0 0.00 0.00 0.00 34 1013.2
20260506130204 54 0 0.0 0.0 0.00 0.00 0.00 36 1013.2
20260506125704 54 0 0.0 0.0 0.00 0.00 0.00 36 1013.2
20260506125204 54 0 0.0 0.0 0.00 0.00 0.00 36 1013.2
20260506124704 54 0 0.0 0.0 0.00 0.00 0.00 35 1013.3
20260506124203 54 0 0.0 0.0 0.00 0.00 0.00 36 1013.2
20260506123703 54 0 0.0 0.0 0.00 0.00 0.00 36 1013.3
20260506123203 54 0 0.0 0.0 0.00 0.00 0.00 35 1013.3
20260506122702 54 0 0.0 0.0 0.00 0.00 0.00 36 1013.1
20260506122202 54 0 0.0 0.0 0.00 0.00 0.00 34 1013.2
20260506121702 54 0 0.0 0.0 0.00 0.00 0.00 34 1013.1
20260506121202 54 0 0.0 0.0 0.00 0.00 0.00 34 1012.9
20260506120701 54 0 0.0 0.0 0.00 0.00 0.00 34 1012.9
20260506120201 54 0 0.0 0.0 0.00 0.00 0.00 33 1012.9
20260506115701 55 0 0.0 0.0 0.00 0.00 0.00 33 1012.8
20260506115200 55 0 0.0 0.0 0.00 0.00 0.00 33 1012.8
20260506114700 55 0 0.0 0.0 0.00 0.00 0.00 33 1012.9
20260506114200 54 0 0.0 0.0 0.00 0.00 0.00 34 1013.1
20260506113700 54 0 0.0 0.0 0.00 0.00 0.00 33 1013.1
20260506113159 54 0 0.0 0.0 0.00 0.00 0.00 33 1012.8
20260506112659 54 0 0.0 0.0 0.00 0.00 0.00 33 1012.9
20260506112159 55 0 0.0 0.0 0.00 0.00 0.00 34 1013.0
20260506111658 54 0 0.0 0.0 0.00 0.00 0.00 34 1013.0
20260506111158 54 0 0.0 0.0 0.00 0.00 0.00 34 1012.9
20260506110658 54 0 0.0 0.0 0.00 0.00 0.00 36 1012.8
20260506110157 54 0 0.0 0.0 0.00 0.00 0.00 36 1013.0
20260506105657 54 0 0.0 0.0 0.00 0.00 0.00 34 1012.9
20260506105157 54 0 0.0 0.0 0.00 0.00 0.00 36 1013.0
20260506104657 54 0 0.0 0.0 0.00 0.00 0.00 34 1012.9
20260506104156 54 0 0.0 0.0 0.00 0.00 0.00 34 1013.2
20260506103656 54 0 0.0 0.0 0.00 0.00 0.00 36 1013.2
20260506103156 54 0 0.0 0.0 0.00 0.00 0.00 36 1013.2
20260506102655 53 0 0.0 0.0 0.00 0.00 0.00 34 1013.2
20260506102155 54 0 0.0 0.0 0.00 0.00 0.00 34 1013.1
20260506101655 54 0 0.0 0.0 0.00 0.00 0.00 36 1013.2
20260506101155 54 0 0.0 0.0 0.00 0.00 0.00 37 1013.2
20260506100654 54 0 0.0 0.0 0.00 0.00 0.00 38 1013.3
20260506100154 55 0 0.0 0.0 0.00 0.00 0.00 38 1013.2
20260506095654 55 0 0.0 0.0 0.00 0.00 0.00 38 1013.3
20260506095153 55 0 0.0 0.0 0.00 0.00 0.00 38 1013.2
20260506094653 55 0 0.0 0.0 0.00 0.00 0.00 39 1013.0
20260506094153 55 0 0.0 0.0 0.00 0.00 0.00 39 1013.1
20260506093653 55 0 0.0 0.0 0.00 0.00 0.00 40 1013.1
20260506093152 55 0 0.0 0.0 0.00 0.00 0.00 39 1013.0
20260506092652 54 0 0.0 0.0 0.00 0.00 0.00 39 1013.1
20260506092152 54 0 0.0 0.0 0.00 0.00 0.00 39 1012.9
20260506091651 54 0 0.0 0.0 0.00 0.00 0.00 40 1013.0
20260506091151 54 0 0.0 0.0 0.00 0.00 0.00 39 1013.2
20260506090651 54 0 0.0 0.0 0.00 0.00 0.00 39 1013.1
20260506090151 54 0 0.0 0.0 0.00 0.00 0.00 38 1013.1
20260506085650 54 0 0.0 0.0 0.00 0.00 0.00 40 1013.0
20260506085150 54 0 0.0 0.0 0.00 0.00 0.00 40 1013.1
20260506084650 54 0 0.0 0.0 0.00 0.00 0.00 40 1013.0
20260506084149 54 0 0.0 0.0 0.00 0.00 0.00 40 1012.9
20260506083649 54 0 0.0 0.0 0.00 0.00 0.00 41 1012.9